Time,TemperatureF,DewpointF,PressureIn,WindDirection,WindDirectionDegrees,WindSpeedMPH,WindSpeedGustMPH,Humidity,HourlyPrecipIn,Conditions,Clouds,dailyrainin,SoftwareType,DateUTC
2013-05-22 00:02:00,61.3,50.3,29.86,ESE,113,0.0,2.4,67,0.00,,,0.00,WUHU216HW,2013-05-21 22:02:00,
2013-05-22 00:07:00,61.3,50.7,29.86,East,90,2.9,2.9,68,0.00,,,0.00,WUHU216HW,2013-05-21 22:07:00,
2013-05-22 00:12:00,61.3,50.7,29.86,North,0,2.9,2.9,68,0.00,,,0.00,WUHU216HW,2013-05-21 22:12:00,
2013-05-22 00:17:00,61.5,50.4,29.86,NW,315,0.8,2.9,67,0.00,,,0.00,WUHU216HW,2013-05-21 22:17:00,
2013-05-22 00:22:00,61.5,50.4,29.85,ENE,68,0.8,0.8,67,0.00,,,0.00,WUHU216HW,2013-05-21 22:22:00,
2013-05-22 00:27:00,61.5,50.4,29.85,East,90,0.8,0.8,67,0.00,,,0.00,WUHU216HW,2013-05-21 22:27:00,
2013-05-22 00:32:00,61.5,50.4,29.85,NNW,338,0.0,0.8,67,0.00,,,0.00,WUHU216HW,2013-05-21 22:32:00,
2013-05-22 00:37:00,61.3,49.9,29.84,ENE,68,1.3,1.3,66,0.00,,,0.00,WUHU216HW,2013-05-21 22:37:00,
2013-05-22 00:42:00,61.5,50.3,29.84,South,180,0.0,1.3,67,0.00,,,0.00,WUHU216HW,2013-05-21 22:42:00,
2013-05-22 00:47:00,61.5,50.0,29.84,East,90,0.0,1.3,67,0.00,,,0.00,WUHU216HW,2013-05-21 22:47:00,
2013-05-22 00:52:00,61.3,50.3,29.83,ESE,113,0.0,1.1,68,0.00,,,0.00,WUHU216HW,2013-05-21 22:52:00,
2013-05-22 00:57:00,61.3,50.3,29.83,NE,45,0.0,0.0,67,0.00,,,0.00,WUHU216HW,2013-05-21 22:57:00,
2013-05-22 01:02:00,61.3,49.0,29.83,North,0,1.5,2.0,64,0.00,,,0.00,WUHU216HW,2013-05-21 23:02:00,
2013-05-22 01:07:00,61.3,49.4,29.82,North,0,0.8,2.0,65,0.00,,,0.00,WUHU216HW,2013-05-21 23:07:00,
2013-05-22 01:12:00,61.3,49.9,29.82,NNW,338,0.0,1.3,66,0.00,,,0.00,WUHU216HW,2013-05-21 23:12:00,
2013-05-22 01:17:00,61.3,50.3,29.82,WNW,293,0.0,0.6,67,0.00,,,0.00,WUHU216HW,2013-05-21 23:17:00,
2013-05-22 01:22:00,61.3,49.9,29.82,ESE,113,0.0,0.6,66,0.00,,,0.00,WUHU216HW,2013-05-21 23:22:00,
2013-05-22 01:27:00,61.1,49.7,29.82,SE,135,0.0,0.0,66,0.00,,,0.00,WUHU216HW,2013-05-21 23:27:00,
2013-05-22 01:32:00,61.1,49.5,29.83,SE,135,0.0,1.3,65,0.00,,,0.00,WUHU216HW,2013-05-21 23:32:00,
2013-05-22 01:37:00,60.9,49.1,29.83,ESE,113,1.5,1.5,65,0.00,,,0.00,WUHU216HW,2013-05-21 23:37:00,
2013-05-22 01:42:00,61.1,48.5,29.83,ESE,113,2.0,2.0,63,0.00,,,0.00,WUHU216HW,2013-05-21 23:42:00,
2013-05-22 01:47:00,61.1,48.5,29.83,SE,135,0.0,2.0,63,0.00,,,0.00,WUHU216HW,2013-05-21 23:47:00,
2013-05-22 01:52:00,61.3,48.6,29.83,North,0,0.0,0.0,63,0.00,,,0.00,WUHU216HW,2013-05-21 23:52:00,
2013-05-22 01:57:00,61.5,48.4,29.82,NE,45,0.0,1.3,62,0.00,,,0.00,WUHU216HW,2013-05-21 23:57:00,
2013-05-22 02:02:00,61.5,49.2,29.82,ESE,113,0.0,1.5,64,0.00,,,0.00,WUHU216HW,2013-05-22 00:02:00,
2013-05-22 02:07:00,61.5,49.2,29.82,ENE,68,1.1,1.5,64,0.00,,,0.00,WUHU216HW,2013-05-22 00:07:00,
2013-05-22 02:12:00,61.3,49.0,29.82,ENE,68,0.0,1.5,64,0.00,,,0.00,WUHU216HW,2013-05-22 00:12:00,
2013-05-22 02:17:00,61.5,48.8,29.81,NW,315,0.0,0.8,63,0.00,,,0.00,WUHU216HW,2013-05-22 00:17:00,
2013-05-22 02:22:00,61.5,48.8,29.81,WNW,293,1.5,1.5,63,0.00,,,0.00,WUHU216HW,2013-05-22 00:22:00,
2013-05-22 02:27:00,61.3,48.6,29.81,East,90,2.0,2.6,63,0.00,,,0.00,WUHU216HW,2013-05-22 00:27:00,
2013-05-22 02:32:00,61.1,48.9,29.81,North,0,1.5,2.6,64,0.00,,,0.00,WUHU216HW,2013-05-22 00:32:00,
2013-05-22 02:37:00,61.1,48.0,29.81,West,270,1.5,1.5,62,0.00,,,0.00,WUHU216HW,2013-05-22 00:37:00,
2013-05-22 02:42:00,60.9,48.0,29.81,NNW,338,3.3,3.3,63,0.00,,,0.00,WUHU216HW,2013-05-22 00:42:00,
2013-05-22 02:47:00,60.9,47.9,29.81,ENE,68,0.0,3.3,63,0.00,,,0.00,WUHU216HW,2013-05-22 00:47:00,
2013-05-22 02:52:00,60.9,47.9,29.81,North,0,0.0,1.7,62,0.00,,,0.00,WUHU216HW,2013-05-22 00:52:00,
2013-05-22 02:57:00,60.9,47.5,29.80,North,11,2.2,3.5,61,0.00,,,0.00,WUHU216HW,2013-05-22 00:57:00,
2013-05-22 03:02:00,60.9,49.1,29.80,ENE,68,2.4,3.5,65,0.00,,,0.00,WUHU216HW,2013-05-22 01:02:00,
2013-05-22 03:07:00,61.1,50.1,29.79,SW,225,0.6,2.4,67,0.00,,,0.00,WUHU216HW,2013-05-22 01:07:00,
2013-05-22 03:12:00,61.3,50.3,29.79,East,90,0.0,2.0,67,0.00,,,0.00,WUHU216HW,2013-05-22 01:12:00,
2013-05-22 03:17:00,61.3,50.3,29.79,ESE,113,0.0,0.0,67,0.00,,,0.00,WUHU216HW,2013-05-22 01:17:00,
2013-05-22 03:22:00,61.5,50.9,29.79,WSW,248,0.0,1.7,68,0.00,,,0.00,WUHU216HW,2013-05-22 01:22:00,
2013-05-22 03:27:00,61.5,51.3,29.79,WSW,248,1.5,1.7,69,0.00,,,0.00,WUHU216HW,2013-05-22 01:27:00,
2013-05-22 03:32:00,61.8,52.4,29.79,WSW,248,0.0,1.5,71,0.00,,,0.00,WUHU216HW,2013-05-22 01:32:00,
2013-05-22 03:37:00,62.0,52.5,29.79,WSW,248,1.3,1.3,71,0.00,,,0.00,WUHU216HW,2013-05-22 01:37:00,
2013-05-22 03:42:00,62.2,52.7,29.79,WSW,248,0.0,1.3,71,0.00,,,0.00,WUHU216HW,2013-05-22 01:42:00,
2013-05-22 03:47:00,62.4,52.5,29.78,North,0,0.0,0.0,70,0.00,,,0.00,WUHU216HW,2013-05-22 01:47:00,
2013-05-22 03:52:00,62.2,52.3,29.78,North,0,1.5,2.0,71,0.00,,,0.00,WUHU216HW,2013-05-22 01:52:00,
2013-05-22 03:57:00,62.2,52.7,29.78,East,90,0.6,2.0,71,0.00,,,0.00,WUHU216HW,2013-05-22 01:57:00,
2013-05-22 04:02:00,62.2,53.0,29.78,East,90,1.3,1.3,72,0.00,,,0.00,WUHU216HW,2013-05-22 02:02:00,
2013-05-22 04:07:00,62.2,53.4,29.77,ENE,71,1.3,2.0,73,0.00,,,0.00,WUHU216HW,2013-05-22 02:07:00,
2013-05-22 04:12:00,62.2,54.1,29.76,East,90,2.2,2.2,75,0.00,,,0.00,WUHU216HW,2013-05-22 02:12:00,
2013-05-22 04:17:00,62.4,54.6,29.76,North,0,2.0,2.2,76,0.00,,,0.00,WUHU216HW,2013-05-22 02:17:00,
2013-05-22 04:23:00,62.4,54.6,29.76,NE,45,0.0,2.0,76,0.00,,,0.00,WUHU216HW,2013-05-22 02:23:00,
2013-05-22 04:28:00,62.4,54.6,29.76,North,0,0.0,0.0,76,0.00,,,0.00,WUHU216HW,2013-05-22 02:28:00,
2013-05-22 04:34:00,62.4,54.3,29.76,NW,315,0.0,0.0,76,0.00,,,0.00,WUHU216HW,2013-05-22 02:34:00,
2013-05-22 04:39:00,62.2,54.0,29.76,East,99,1.9,2.9,75,0.00,,,0.00,WUHU216HW,2013-05-22 02:39:00,
2013-05-22 04:44:00,61.8,54.2,29.75,ENE,68,1.8,2.9,76,0.00,,,0.00,WUHU216HW,2013-05-22 02:44:00,
2013-05-22 04:49:00,61.8,54.2,29.75,NE,45,0.0,2.0,76,0.00,,,0.00,WUHU216HW,2013-05-22 02:49:00,
2013-05-22 04:54:00,62.2,54.5,29.75,ENE,68,1.7,1.7,76,0.00,,,0.00,WUHU216HW,2013-05-22 02:54:00,
2013-05-22 04:59:00,62.2,54.5,29.76,ENE,68,1.5,1.7,76,0.00,,,0.00,WUHU216HW,2013-05-22 02:59:00,
2013-05-22 05:04:00,62.2,54.5,29.75,ESE,113,0.6,1.5,76,0.00,,,0.00,WUHU216HW,2013-05-22 03:04:00,
2013-05-22 05:09:00,62.2,54.5,29.76,ENE,68,1.3,2.2,76,0.00,,,0.00,WUHU216HW,2013-05-22 03:09:00,
2013-05-22 05:14:00,62.4,54.6,29.76,ENE,68,0.0,2.2,76,0.00,,,0.00,WUHU216HW,2013-05-22 03:14:00,
2013-05-22 05:19:00,62.4,54.6,29.75,ESE,113,0.0,2.6,76,0.00,,,0.00,WUHU216HW,2013-05-22 03:19:00,
2013-05-22 05:24:00,62.4,54.6,29.75,ESE,113,0.0,2.6,76,0.00,,,0.00,WUHU216HW,2013-05-22 03:24:00,
2013-05-22 05:29:00,62.2,54.5,29.75,North,0,0.0,2.4,76,0.00,,,0.00,WUHU216HW,2013-05-22 03:29:00,
2013-05-22 05:34:00,62.4,54.6,29.75,North,0,1.7,2.4,76,0.00,,,0.00,WUHU216HW,2013-05-22 03:34:00,
2013-05-22 05:39:00,62.4,54.6,29.75,ENE,68,2.2,2.2,76,0.00,,,0.00,WUHU216HW,2013-05-22 03:39:00,
2013-05-22 05:44:00,61.8,54.2,29.75,SSW,203,0.0,2.2,76,0.00,,,0.00,WUHU216HW,2013-05-22 03:44:00,
2013-05-22 05:49:00,62.0,54.3,29.74,SE,135,2.2,2.2,76,0.00,,,0.00,WUHU216HW,2013-05-22 03:49:00,
2013-05-22 05:54:00,62.2,54.5,29.75,ESE,113,1.7,2.2,76,0.00,,,0.00,WUHU216HW,2013-05-22 03:54:00,
2013-05-22 05:59:00,62.2,54.5,29.75,NNE,23,0.0,2.2,76,0.00,,,0.00,WUHU216HW,2013-05-22 03:59:00,
2013-05-22 06:01:00,62.2,54.5,29.75,ENE,68,0.0,2.2,76,0.00,,,0.00,WUHU216HW,2013-05-22 04:01:00,
2013-05-22 06:06:00,61.8,54.2,29.74,ESE,113,2.0,2.0,76,0.00,,,0.00,WUHU216HW,2013-05-22 04:06:00,
2013-05-22 06:11:00,62.0,54.3,29.74,ESE,113,2.0,2.4,76,0.00,,,0.00,WUHU216HW,2013-05-22 04:11:00,
2013-05-22 06:16:00,62.2,54.5,29.75,ESE,113,2.2,3.1,76,0.00,,,0.00,WUHU216HW,2013-05-22 04:16:00,
2013-05-22 06:22:00,62.6,54.8,29.74,East,90,1.5,3.1,76,0.00,,,0.00,WUHU216HW,2013-05-22 04:22:00,
2013-05-22 06:27:00,62.9,55.2,29.74,ESE,116,1.8,2.0,76,0.00,,,0.00,WUHU216HW,2013-05-22 04:27:00,
2013-05-22 06:32:00,63.1,55.4,29.74,East,90,1.3,2.0,76,0.00,,,0.00,WUHU216HW,2013-05-22 04:32:00,
2013-05-22 06:38:00,63.3,55.5,29.74,East,90,1.1,1.3,76,0.00,,,0.00,WUHU216HW,2013-05-22 04:38:00,
2013-05-22 06:43:00,63.5,55.4,29.74,SSW,203,0.0,1.1,75,0.00,,,0.00,WUHU216HW,2013-05-22 04:43:00,
2013-05-22 06:50:00,63.8,56.1,29.74,SE,135,1.3,1.3,76,0.00,,,0.00,WUHU216HW,2013-05-22 04:50:00,
2013-05-22 06:55:00,64.2,56.4,29.74,East,90,0.0,1.3,76,0.00,,,0.00,WUHU216HW,2013-05-22 04:55:00,
2013-05-22 07:00:00,64.2,56.3,29.74,SE,135,1.5,1.5,75,0.00,,,0.00,WUHU216HW,2013-05-22 05:00:00,
2013-05-22 07:05:00,64.5,56.4,29.74,North,0,0.0,1.5,75,0.00,,,0.00,WUHU216HW,2013-05-22 05:05:00,
2013-05-22 07:12:00,64.9,56.6,29.74,South,180,0.0,1.3,74,0.00,,,0.00,WUHU216HW,2013-05-22 05:12:00,
2013-05-22 07:17:00,65.3,56.7,29.74,ESE,113,0.0,1.3,74,0.00,,,0.00,WUHU216HW,2013-05-22 05:17:00,
2013-05-22 07:22:00,65.6,57.4,29.74,ENE,68,0.0,0.0,75,0.00,,,0.00,WUHU216HW,2013-05-22 05:22:00,
2013-05-22 07:27:00,65.4,57.3,29.74,NNE,23,0.6,0.6,76,0.00,,,0.00,WUHU216HW,2013-05-22 05:27:00,
2013-05-22 07:32:00,65.4,57.6,29.73,East,90,0.0,0.6,76,0.00,,,0.00,WUHU216HW,2013-05-22 05:32:00,
2013-05-22 07:37:00,65.6,57.4,29.73,East,90,0.0,0.0,75,0.00,,,0.00,WUHU216HW,2013-05-22 05:37:00,
2013-05-22 07:42:00,66.0,58.2,29.73,NW,315,0.0,0.0,76,0.00,,,0.00,WUHU216HW,2013-05-22 05:42:00,
2013-05-22 07:47:00,66.7,58.5,29.73,East,90,0.0,0.0,75,0.00,,,0.00,WUHU216HW,2013-05-22 05:47:00,
2013-05-22 07:52:00,68.1,59.5,29.73,ENE,68,0.0,0.0,74,0.00,,,0.00,WUHU216HW,2013-05-22 05:52:00,
2013-05-22 07:57:00,69.4,60.1,29.73,ENE,68,0.0,2.0,73,0.00,,,0.00,WUHU216HW,2013-05-22 05:57:00,
2013-05-22 08:02:00,70.5,60.2,29.72,NNW,338,0.0,2.0,70,0.00,,,0.00,WUHU216HW,2013-05-22 06:02:00,
2013-05-22 08:07:00,70.8,59.3,29.72,NNE,23,2.4,2.4,67,0.00,,,0.00,WUHU216HW,2013-05-22 06:07:00,
2013-05-22 08:12:00,71.2,59.2,29.72,NNW,338,0.0,2.4,66,0.00,,,0.00,WUHU216HW,2013-05-22 06:12:00,
2013-05-22 08:17:00,71.4,59.0,29.72,WNW,293,0.0,0.0,65,0.00,,,0.00,WUHU216HW,2013-05-22 06:17:00,
2013-05-22 08:22:00,72.3,58.9,29.73,West,270,0.0,0.0,63,0.00,,,0.00,WUHU216HW,2013-05-22 06:22:00,
2013-05-22 08:27:00,73.0,59.1,29.72,SSE,158,0.0,0.0,62,0.00,,,0.00,WUHU216HW,2013-05-22 06:27:00,
2013-05-22 08:32:00,73.5,58.8,29.72,SSE,158,0.0,0.0,60,0.00,,,0.00,WUHU216HW,2013-05-22 06:32:00,
2013-05-22 08:37:00,73.7,58.3,29.71,WSW,248,0.0,0.0,59,0.00,,,0.00,WUHU216HW,2013-05-22 06:37:00,
2013-05-22 08:42:00,73.5,58.8,29.71,WSW,248,0.0,0.0,60,0.00,,,0.00,WUHU216HW,2013-05-22 06:42:00,
2013-05-22 08:47:00,73.2,58.4,29.71,SSW,203,0.0,0.0,60,0.00,,,0.00,WUHU216HW,2013-05-22 06:47:00,
2013-05-22 08:52:00,73.0,58.7,29.71,WSW,248,0.0,0.0,61,0.00,,,0.00,WUHU216HW,2013-05-22 06:52:00,
2013-05-22 08:57:00,73.2,59.3,29.72,West,270,0.0,0.0,62,0.00,,,0.00,WUHU216HW,2013-05-22 06:57:00,
2013-05-22 09:02:00,73.2,59.8,29.72,NNE,33,1.6,2.9,63,0.00,,,0.00,WUHU216HW,2013-05-22 07:02:00,
2013-05-22 09:07:00,73.5,60.1,29.72,NNE,23,2.0,2.9,63,0.00,,,0.00,WUHU216HW,2013-05-22 07:07:00,
2013-05-22 09:12:00,73.5,60.1,29.72,North,0,0.0,2.4,63,0.00,,,0.00,WUHU216HW,2013-05-22 07:12:00,
2013-05-22 09:17:00,73.5,60.1,29.72,NNE,23,0.0,1.3,63,0.00,,,0.00,WUHU216HW,2013-05-22 07:17:00,
2013-05-22 09:22:00,73.2,60.2,29.73,South,180,1.3,2.6,64,0.00,,,0.00,WUHU216HW,2013-05-22 07:22:00,
2013-05-22 09:27:00,72.6,60.6,29.73,ENE,68,2.2,2.6,66,0.00,,,0.00,WUHU216HW,2013-05-22 07:27:00,
2013-05-22 09:32:00,71.6,60.9,29.73,NE,45,1.3,3.1,69,0.07,,,0.07,WUHU216HW,2013-05-22 07:32:00,
2013-05-22 09:37:00,70.7,61.9,29.73,ENE,68,2.4,3.1,74,0.07,,,0.07,WUHU216HW,2013-05-22 07:37:00,
2013-05-22 09:42:00,70.1,61.7,29.72,ENE,78,2.4,2.6,75,0.07,,,0.07,WUHU216HW,2013-05-22 07:42:00,
2013-05-22 09:47:00,70.7,61.9,29.71,East,90,1.5,3.8,74,0.07,,,0.07,WUHU216HW,2013-05-22 07:47:00,
2013-05-22 09:52:00,72.1,63.0,29.71,ENE,68,3.3,3.8,73,0.07,,,0.07,WUHU216HW,2013-05-22 07:52:00,
2013-05-22 09:57:00,73.2,62.5,29.70,ENE,68,3.1,3.5,69,0.07,,,0.07,WUHU216HW,2013-05-22 07:57:00,
2013-05-22 10:02:00,73.9,62.7,29.70,North,6,1.4,3.1,68,0.07,,,0.07,WUHU216HW,2013-05-22 08:02:00,
2013-05-22 10:07:00,73.9,60.0,29.70,NNW,348,3.4,3.5,62,0.07,,,0.07,WUHU216HW,2013-05-22 08:07:00,
2013-05-22 10:12:00,74.1,61.5,29.69,North,10,1.5,3.5,65,0.07,,,0.07,WUHU216HW,2013-05-22 08:12:00,
2013-05-22 10:17:00,74.8,61.3,29.68,North,0,1.3,2.4,63,0.07,,,0.07,WUHU216HW,2013-05-22 08:17:00,
2013-05-22 10:22:00,75.0,61.1,29.68,NW,319,1.9,2.4,61,0.07,,,0.07,WUHU216HW,2013-05-22 08:22:00,
2013-05-22 10:27:00,74.8,60.9,29.67,NNW,338,3.3,3.3,62,0.05,,,0.07,WUHU216HW,2013-05-22 08:27:00,
2013-05-22 10:32:00,75.0,61.1,29.68,NW,315,0.0,3.3,62,0.00,,,0.07,WUHU216HW,2013-05-22 08:32:00,
2013-05-22 10:39:00,77.5,61.5,29.68,East,90,0.0,0.0,58,0.00,,,0.07,WUHU216HW,2013-05-22 08:39:00,
2013-05-22 10:44:00,79.3,61.2,29.68,South,180,0.0,0.0,54,0.00,,,0.07,WUHU216HW,2013-05-22 08:44:00,
2013-05-22 10:51:00,80.2,62.0,29.67,North,0,0.8,0.8,54,0.00,,,0.07,WUHU216HW,2013-05-22 08:51:00,
2013-05-22 10:56:00,79.3,60.6,29.65,NNW,338,3.3,5.8,53,0.00,,,0.07,WUHU216HW,2013-05-22 08:56:00,
2013-05-22 11:01:00,78.0,60.0,29.66,East,90,4.2,6.0,54,0.00,,,0.07,WUHU216HW,2013-05-22 09:01:00,
2013-05-22 11:06:00,77.3,59.3,29.66,ENE,68,3.4,7.6,54,0.00,,,0.07,WUHU216HW,2013-05-22 09:06:00,
2013-05-22 11:12:00,76.6,60.7,29.65,East,81,3.1,4.4,58,0.00,,,0.07,WUHU216HW,2013-05-22 09:12:00,
2013-05-22 11:17:00,76.6,61.7,29.65,East,90,6.0,6.0,60,0.00,,,0.07,WUHU216HW,2013-05-22 09:17:00,
2013-05-22 11:22:00,77.1,61.2,29.65,ENE,68,4.0,6.0,58,0.00,,,0.07,WUHU216HW,2013-05-22 09:22:00,
2013-05-22 11:27:00,77.5,60.0,29.64,East,99,3.3,6.4,55,0.00,,,0.07,WUHU216HW,2013-05-22 09:27:00,
2013-05-22 11:32:00,77.9,59.8,29.63,East,90,3.5,6.7,54,0.00,,,0.07,WUHU216HW,2013-05-22 09:32:00,
2013-05-22 11:37:00,78.6,60.5,29.63,SE,135,6.4,6.7,54,0.00,,,0.07,WUHU216HW,2013-05-22 09:37:00,
2013-05-22 11:42:00,79.1,58.3,29.63,ESE,113,6.4,13.8,49,0.00,,,0.07,WUHU216HW,2013-05-22 09:42:00,
2013-05-22 11:47:00,78.9,58.8,29.63,ENE,59,3.5,13.8,50,0.00,,,0.07,WUHU216HW,2013-05-22 09:47:00,
2013-05-22 11:52:00,79.3,59.2,29.62,ESE,121,6.4,12.7,50,0.00,,,0.07,WUHU216HW,2013-05-22 09:52:00,
2013-05-22 11:57:00,79.8,59.0,29.62,ENE,68,5.8,8.2,49,0.00,,,0.07,WUHU216HW,2013-05-22 09:57:00,
2013-05-22 12:02:00,79.8,59.0,29.62,ESE,105,3.3,7.3,49,0.00,,,0.07,WUHU216HW,2013-05-22 10:02:00,
2013-05-22 12:07:00,79.8,59.0,29.61,ENE,68,6.0,6.0,49,0.00,,,0.07,WUHU216HW,2013-05-22 10:07:00,
2013-05-22 12:12:00,80.2,58.7,29.60,NE,45,4.2,6.0,48,0.00,,,0.07,WUHU216HW,2013-05-22 10:12:00,
2013-05-22 12:17:00,79.8,58.3,29.60,SE,135,0.6,5.1,48,0.00,,,0.07,WUHU216HW,2013-05-22 10:17:00,
2013-05-22 12:22:00,80.7,58.5,29.59,WNW,293,0.0,2.9,47,0.00,,,0.07,WUHU216HW,2013-05-22 10:22:00,
2013-05-22 12:27:00,81.3,59.6,29.59,ESE,102,3.9,4.0,48,0.00,,,0.07,WUHU216HW,2013-05-22 10:27:00,
2013-05-22 12:32:00,80.6,58.2,29.58,ENE,68,5.8,13.4,47,0.00,,,0.07,WUHU216HW,2013-05-22 10:32:00,
2013-05-22 12:37:00,79.1,58.9,29.58,SE,135,5.1,13.4,49,0.00,,,0.07,WUHU216HW,2013-05-22 10:37:00,
2013-05-22 12:42:00,78.4,58.8,29.60,East,81,7.0,11.1,51,0.00,,,0.07,WUHU216HW,2013-05-22 10:42:00,
2013-05-22 12:47:00,77.7,59.1,29.62,South,180,4.4,10.9,53,0.00,,,0.07,WUHU216HW,2013-05-22 10:47:00,
2013-05-22 12:52:00,77.5,60.5,29.60,ENE,68,10.7,10.7,56,0.00,,,0.07,WUHU216HW,2013-05-22 10:52:00,
2013-05-22 12:57:00,75.0,62.4,29.59,ENE,68,9.6,11.8,65,0.06,,,0.13,WUHU216HW,2013-05-22 10:57:00,
2013-05-22 13:02:00,73.5,61.9,29.60,ENE,73,6.0,11.8,67,0.06,,,0.13,WUHU216HW,2013-05-22 11:02:00,
2013-05-22 13:07:00,73.9,63.1,29.59,ESE,123,8.7,11.1,69,0.06,,,0.13,WUHU216HW,2013-05-22 11:07:00,
2013-05-22 13:12:00,74.8,63.1,29.58,SE,135,3.8,8.9,67,0.06,,,0.13,WUHU216HW,2013-05-22 11:12:00,
2013-05-22 13:17:00,74.8,62.2,29.58,ESE,113,8.2,8.2,65,0.06,,,0.13,WUHU216HW,2013-05-22 11:17:00,
2013-05-22 13:22:00,75.2,63.0,29.58,East,90,10.0,10.0,66,0.06,,,0.13,WUHU216HW,2013-05-22 11:22:00,
2013-05-22 13:27:00,75.7,63.1,29.57,ESE,115,15.6,17.2,65,0.06,,,0.13,WUHU216HW,2013-05-22 11:27:00,
2013-05-22 13:32:00,75.5,62.4,29.58,East,91,10.8,17.2,64,0.08,,,0.15,WUHU216HW,2013-05-22 11:32:00,
2013-05-22 13:37:00,75.0,62.4,29.57,East,80,8.1,13.6,65,0.08,,,0.15,WUHU216HW,2013-05-22 11:37:00,
2013-05-22 13:42:00,75.0,61.5,29.57,East,90,6.9,14.5,64,0.08,,,0.15,WUHU216HW,2013-05-22 11:42:00,
2013-05-22 13:47:00,75.0,61.1,29.56,ESE,113,14.3,14.5,62,0.08,,,0.15,WUHU216HW,2013-05-22 11:47:00,
2013-05-22 13:52:00,75.5,61.1,29.55,ENE,68,12.4,19.6,61,0.08,,,0.15,WUHU216HW,2013-05-22 11:52:00,
2013-05-22 13:57:00,76.2,61.8,29.55,East,90,19.6,19.6,61,0.02,,,0.15,WUHU216HW,2013-05-22 11:57:00,
2013-05-22 14:02:00,76.8,61.3,29.54,NE,45,5.8,19.6,59,0.02,,,0.15,WUHU216HW,2013-05-22 12:02:00,
2013-05-22 14:07:00,76.8,61.3,29.54,East,93,11.8,18.7,59,0.02,,,0.15,WUHU216HW,2013-05-22 12:07:00,
2013-05-22 14:12:00,77.0,61.5,29.54,ESE,121,7.7,18.7,59,0.02,,,0.15,WUHU216HW,2013-05-22 12:12:00,
2013-05-22 14:17:00,77.5,61.0,29.55,ENE,68,16.1,16.7,57,0.02,,,0.15,WUHU216HW,2013-05-22 12:17:00,
2013-05-22 14:22:00,77.5,60.5,29.54,East,101,12.6,16.1,56,0.02,,,0.15,WUHU216HW,2013-05-22 12:22:00,
2013-05-22 14:27:00,77.9,60.9,29.54,East,90,13.4,17.0,56,0.00,,,0.15,WUHU216HW,2013-05-22 12:27:00,
2013-05-22 14:32:00,77.7,60.2,29.54,SE,135,16.7,17.6,55,0.00,,,0.15,WUHU216HW,2013-05-22 12:32:00,
2013-05-22 14:37:00,77.7,60.2,29.53,NE,45,16.3,17.6,55,0.00,,,0.15,WUHU216HW,2013-05-22 12:37:00,
2013-05-22 14:42:00,77.1,60.8,29.53,SE,145,9.6,17.4,57,0.00,,,0.15,WUHU216HW,2013-05-22 12:42:00,
2013-05-22 14:47:00,77.1,60.7,29.52,NE,45,9.3,17.4,56,0.00,,,0.15,WUHU216HW,2013-05-22 12:47:00,
2013-05-22 14:52:00,76.8,60.3,29.52,NE,51,14.1,21.4,57,0.00,,,0.15,WUHU216HW,2013-05-22 12:52:00,
2013-05-22 14:57:00,76.8,60.3,29.52,ESE,113,11.4,21.4,57,0.00,,,0.15,WUHU216HW,2013-05-22 12:57:00,
2013-05-22 15:02:00,76.6,60.2,29.51,ESE,113,19.6,19.6,57,0.00,,,0.15,WUHU216HW,2013-05-22 13:02:00,
2013-05-22 15:07:00,76.8,60.8,29.51,ESE,116,8.8,19.6,58,0.00,,,0.15,WUHU216HW,2013-05-22 13:07:00,
2013-05-22 15:12:00,76.8,59.8,29.51,ESE,113,18.3,19.9,56,0.00,,,0.15,WUHU216HW,2013-05-22 13:12:00,
2013-05-22 15:17:00,76.8,60.3,29.50,ESE,113,16.9,19.9,57,0.00,,,0.15,WUHU216HW,2013-05-22 13:17:00,
2013-05-22 15:22:00,76.8,60.2,29.50,South,180,9.6,19.2,57,0.00,,,0.15,WUHU216HW,2013-05-22 13:22:00,
2013-05-22 15:27:00,76.6,60.2,29.50,East,96,13.9,20.3,57,0.00,,,0.15,WUHU216HW,2013-05-22 13:27:00,
2013-05-22 15:32:00,76.6,60.2,29.50,East,82,20.1,25.0,57,0.00,,,0.15,WUHU216HW,2013-05-22 13:32:00,
2013-05-22 15:37:00,76.2,60.4,29.50,East,90,12.9,25.0,58,0.00,,,0.15,WUHU216HW,2013-05-22 13:37:00,
2013-05-22 15:42:00,75.5,60.0,29.50,East,90,18.5,19.2,59,0.00,,,0.15,WUHU216HW,2013-05-22 13:42:00,
2013-05-22 15:47:00,75.0,60.2,29.50,ESE,113,15.1,21.2,60,0.00,,,0.15,WUHU216HW,2013-05-22 13:47:00,
2013-05-22 15:52:00,74.6,60.3,29.50,ESE,113,11.4,21.2,61,0.00,,,0.15,WUHU216HW,2013-05-22 13:52:00,
2013-05-22 15:57:00,74.1,60.2,29.49,ESE,113,19.2,28.8,62,0.00,,,0.15,WUHU216HW,2013-05-22 13:57:00,
2013-05-22 16:02:00,74.3,60.4,29.49,ENE,68,19.6,28.8,62,0.00,,,0.15,WUHU216HW,2013-05-22 14:02:00,
2013-05-22 16:07:00,74.6,60.3,29.48,ESE,113,11.5,19.6,61,0.00,,,0.15,WUHU216HW,2013-05-22 14:07:00,
2013-05-22 16:12:00,74.8,60.0,29.48,ENE,62,11.3,21.2,60,0.00,,,0.15,WUHU216HW,2013-05-22 14:12:00,
2013-05-22 16:17:00,75.0,60.2,29.47,ENE,75,10.6,21.2,60,0.00,,,0.15,WUHU216HW,2013-05-22 14:17:00,
2013-05-22 16:22:00,75.0,60.2,29.48,East,83,14.1,19.2,60,0.00,,,0.15,WUHU216HW,2013-05-22 14:22:00,
2013-05-22 16:27:00,74.6,59.9,29.48,ESE,113,5.8,19.2,60,0.00,,,0.15,WUHU216HW,2013-05-22 14:27:00,
2013-05-22 16:32:00,74.4,59.7,29.48,ESE,120,13.5,17.4,60,0.00,,,0.15,WUHU216HW,2013-05-22 14:32:00,
2013-05-22 16:37:00,74.4,59.7,29.47,SE,124,8.8,17.4,60,0.00,,,0.15,WUHU216HW,2013-05-22 14:37:00,
2013-05-22 16:42:00,74.1,59.7,29.48,ENE,58,9.3,15.6,61,0.00,,,0.15,WUHU216HW,2013-05-22 14:42:00,
2013-05-22 16:47:00,73.7,60.0,29.47,ESE,122,9.4,21.6,62,0.00,,,0.15,WUHU216HW,2013-05-22 14:47:00,
2013-05-22 16:52:00,73.5,59.7,29.47,East,90,12.5,21.6,62,0.00,,,0.15,WUHU216HW,2013-05-22 14:52:00,
2013-05-22 16:57:00,73.2,59.8,29.47,East,90,17.0,18.3,63,0.00,,,0.15,WUHU216HW,2013-05-22 14:57:00,
2013-05-22 17:02:00,73.0,59.6,29.48,ESE,104,10.6,17.0,63,0.00,,,0.15,WUHU216HW,2013-05-22 15:02:00,
2013-05-22 17:07:00,72.8,59.4,29.48,ENE,68,13.9,19.2,63,0.00,,,0.15,WUHU216HW,2013-05-22 15:07:00,
2013-05-22 17:12:00,72.5,59.5,29.48,SE,135,15.6,19.2,64,0.00,,,0.15,WUHU216HW,2013-05-22 15:12:00,
2013-05-22 17:17:00,72.1,59.2,29.48,South,171,8.6,15.8,64,0.00,,,0.15,WUHU216HW,2013-05-22 15:17:00,
2013-05-22 17:23:00,71.9,59.5,29.48,NNE,18,8.9,16.5,65,0.00,,,0.15,WUHU216HW,2013-05-22 15:23:00,
2013-05-22 17:28:00,71.4,59.0,29.48,SSE,158,7.1,18.3,65,0.00,,,0.15,WUHU216HW,2013-05-22 15:28:00,
2013-05-22 17:33:00,71.2,59.2,29.48,ESE,113,13.8,18.3,66,0.00,,,0.15,WUHU216HW,2013-05-22 15:33:00,
2013-05-22 17:38:00,71.2,59.2,29.48,East,81,11.3,13.8,66,0.00,,,0.15,WUHU216HW,2013-05-22 15:38:00,
2013-05-22 17:43:00,70.8,58.9,29.47,ESE,113,17.0,27.0,66,0.00,,,0.15,WUHU216HW,2013-05-22 15:43:00,
2013-05-22 17:48:00,70.8,58.9,29.47,NE,45,13.4,27.0,66,0.00,,,0.15,WUHU216HW,2013-05-22 15:48:00,
2013-05-22 17:53:00,70.7,59.1,29.47,ESE,112,4.7,24.8,67,0.00,,,0.15,WUHU216HW,2013-05-22 15:53:00,
2013-05-22 17:58:00,70.7,59.1,29.47,ESE,113,13.8,16.5,67,0.00,,,0.15,WUHU216HW,2013-05-22 15:58:00,
2013-05-22 18:03:00,70.8,58.9,29.47,ESE,113,17.2,17.2,66,0.00,,,0.15,WUHU216HW,2013-05-22 16:03:00,
2013-05-22 18:08:00,71.0,59.0,29.47,East,90,13.6,17.2,66,0.00,,,0.15,WUHU216HW,2013-05-22 16:08:00,
2013-05-22 18:15:00,70.7,58.7,29.47,SE,135,9.6,17.6,66,0.00,,,0.15,WUHU216HW,2013-05-22 16:15:00,
2013-05-22 18:20:00,70.5,58.9,29.47,East,83,13.4,17.4,67,0.00,,,0.15,WUHU216HW,2013-05-22 16:20:00,
2013-05-22 18:25:00,70.5,58.5,29.47,East,95,9.1,18.3,66,0.00,,,0.15,WUHU216HW,2013-05-22 16:25:00,
2013-05-22 18:30:00,70.5,58.5,29.46,SSE,154,8.5,18.3,66,0.00,,,0.15,WUHU216HW,2013-05-22 16:30:00,
2013-05-22 18:35:00,70.8,58.4,29.46,North,0,4.9,19.6,65,0.00,,,0.15,WUHU216HW,2013-05-22 16:35:00,
2013-05-22 18:40:00,70.8,58.4,29.45,ENE,68,10.7,19.6,64,0.00,,,0.15,WUHU216HW,2013-05-22 16:40:00,
2013-05-22 18:45:00,70.8,58.4,29.46,ESE,113,7.1,19.6,65,0.00,,,0.15,WUHU216HW,2013-05-22 16:45:00,
2013-05-22 18:50:00,70.3,58.8,29.46,ENE,68,6.2,19.6,67,0.00,,,0.15,WUHU216HW,2013-05-22 16:50:00,
2013-05-22 18:55:00,69.6,58.9,29.45,ENE,66,11.6,15.6,69,0.00,,,0.15,WUHU216HW,2013-05-22 16:55:00,
2013-05-22 19:00:00,69.6,58.5,29.45,ENE,60,7.6,15.6,68,0.00,,,0.15,WUHU216HW,2013-05-22 17:00:00,
2013-05-22 19:05:00,69.9,58.8,29.45,East,90,21.6,21.6,68,0.00,,,0.15,WUHU216HW,2013-05-22 17:05:00,
2013-05-22 19:10:00,70.3,58.3,29.45,ESE,113,7.1,21.6,66,0.00,,,0.15,WUHU216HW,2013-05-22 17:10:00,
2013-05-22 19:15:00,70.3,58.3,29.45,ENE,68,8.2,13.6,65,0.00,,,0.15,WUHU216HW,2013-05-22 17:15:00,
2013-05-22 19:20:00,70.3,57.9,29.44,NE,45,6.2,8.2,65,0.00,,,0.15,WUHU216HW,2013-05-22 17:20:00,
2013-05-22 19:25:00,70.5,58.1,29.44,NNE,23,6.4,8.2,65,0.00,,,0.15,WUHU216HW,2013-05-22 17:25:00,
2013-05-22 19:30:00,70.5,57.7,29.44,SE,135,14.3,14.3,64,0.00,,,0.15,WUHU216HW,2013-05-22 17:30:00,
2013-05-22 19:35:00,70.5,57.7,29.44,East,90,6.9,14.3,64,0.00,,,0.15,WUHU216HW,2013-05-22 17:35:00,
2013-05-22 19:41:00,70.5,58.1,29.43,ENE,66,2.1,9.8,65,0.00,,,0.15,WUHU216HW,2013-05-22 17:41:00,
2013-05-22 19:46:00,69.9,58.4,29.43,NNE,23,1.9,6.0,67,0.00,,,0.15,WUHU216HW,2013-05-22 17:46:00,
2013-05-22 19:51:00,68.5,58.7,29.43,NNE,23,4.6,5.3,71,0.00,,,0.15,WUHU216HW,2013-05-22 17:51:00,
2013-05-22 19:56:00,68.1,58.2,29.44,NE,45,6.7,7.8,71,0.00,,,0.15,WUHU216HW,2013-05-22 17:56:00,
2013-05-22 20:01:00,67.8,58.1,29.44,ENE,58,5.4,11.4,71,0.00,,,0.15,WUHU216HW,2013-05-22 18:01:00,
2013-05-22 20:06:00,68.3,57.8,29.43,ENE,59,8.0,11.4,69,0.00,,,0.15,WUHU216HW,2013-05-22 18:06:00,
2013-05-22 20:11:00,68.7,57.7,29.43,ENE,57,9.3,15.8,68,0.00,,,0.15,WUHU216HW,2013-05-22 18:11:00,
2013-05-22 20:16:00,68.7,57.7,29.43,East,82,5.1,15.8,68,0.00,,,0.15,WUHU216HW,2013-05-22 18:16:00,
2013-05-22 20:21:00,68.5,57.9,29.42,East,93,6.4,11.8,69,0.00,,,0.15,WUHU216HW,2013-05-22 18:21:00,
2013-05-22 20:27:00,68.1,57.2,29.42,North,0,10.0,13.6,68,0.00,,,0.15,WUHU216HW,2013-05-22 18:27:00,
2013-05-22 20:32:00,68.3,56.9,29.42,ENE,68,10.5,17.8,67,0.00,,,0.15,WUHU216HW,2013-05-22 18:32:00,
2013-05-22 20:37:00,68.7,56.4,29.42,ENE,59,11.1,19.0,65,0.00,,,0.15,WUHU216HW,2013-05-22 18:37:00,
2013-05-22 20:42:00,68.5,55.8,29.41,ENE,68,10.9,19.0,64,0.00,,,0.15,WUHU216HW,2013-05-22 18:42:00,
2013-05-22 20:47:00,67.8,56.0,29.42,ENE,62,4.4,16.1,66,0.00,,,0.15,WUHU216HW,2013-05-22 18:47:00,
2013-05-22 20:52:00,67.6,57.1,29.42,North,0,5.1,13.1,69,0.00,,,0.15,WUHU216HW,2013-05-22 18:52:00,
2013-05-22 20:57:00,66.9,56.4,29.41,ENE,68,16.7,16.7,69,0.00,,,0.15,WUHU216HW,2013-05-22 18:57:00,
2013-05-22 21:02:00,67.1,56.1,29.41,ENE,68,13.0,16.7,68,0.00,,,0.15,WUHU216HW,2013-05-22 19:02:00,
2013-05-22 21:07:00,66.0,55.9,29.40,NE,45,15.8,16.3,70,0.00,,,0.15,WUHU216HW,2013-05-22 19:07:00,
2013-05-22 21:12:00,65.4,56.2,29.40,NE,50,4.9,15.8,72,0.00,,,0.15,WUHU216HW,2013-05-22 19:12:00,
2013-05-22 21:17:00,65.3,56.0,29.41,NE,36,3.1,10.5,72,0.00,,,0.15,WUHU216HW,2013-05-22 19:17:00,
2013-05-22 21:22:00,65.3,56.0,29.41,NE,37,8.5,11.1,72,0.00,,,0.15,WUHU216HW,2013-05-22 19:22:00,
2013-05-22 21:27:00,66.2,55.7,29.42,East,90,8.2,12.9,69,0.00,,,0.15,WUHU216HW,2013-05-22 19:27:00,
2013-05-22 21:32:00,66.9,55.5,29.43,ENE,74,3.7,12.9,67,0.00,,,0.15,WUHU216HW,2013-05-22 19:32:00,
2013-05-22 21:37:00,66.9,55.9,29.45,North,0,2.6,11.1,68,0.00,,,0.15,WUHU216HW,2013-05-22 19:37:00,
2013-05-22 21:42:00,66.7,55.8,29.45,SSE,158,5.8,5.8,68,0.00,,,0.15,WUHU216HW,2013-05-22 19:42:00,
2013-05-22 21:47:00,66.3,56.6,29.46,SSW,213,4.8,7.6,71,0.00,,,0.15,WUHU216HW,2013-05-22 19:47:00,
2013-05-22 21:52:00,64.4,56.6,29.47,South,177,11.6,18.3,76,0.04,,,0.19,WUHU216HW,2013-05-22 19:52:00,
2013-05-22 21:57:00,62.0,54.0,29.46,SSW,206,13.6,19.6,75,0.14,,,0.29,WUHU216HW,2013-05-22 19:57:00,
2013-05-22 22:02:00,60.6,50.0,29.46,South,190,8.1,19.6,68,0.22,,,0.37,WUHU216HW,2013-05-22 20:02:00,
2013-05-22 22:07:00,60.4,48.2,29.48,ESE,113,9.6,9.8,64,0.24,,,0.39,WUHU216HW,2013-05-22 20:07:00,
2013-05-22 22:12:00,60.6,48.4,29.48,SSE,158,4.2,9.6,64,0.24,,,0.39,WUHU216HW,2013-05-22 20:12:00,
2013-05-22 22:17:00,61.1,49.7,29.47,SSE,158,7.8,7.8,66,0.26,,,0.41,WUHU216HW,2013-05-22 20:17:00,
2013-05-22 22:22:00,61.3,52.6,29.47,East,99,13.9,16.5,73,0.28,,,0.43,WUHU216HW,2013-05-22 20:22:00,
2013-05-22 22:27:00,60.9,53.4,29.47,ESE,113,4.4,16.5,76,0.30,,,0.45,WUHU216HW,2013-05-22 20:27:00,
2013-05-22 22:32:00,61.1,53.5,29.47,East,90,8.0,14.0,76,0.32,,,0.47,WUHU216HW,2013-05-22 20:32:00,
2013-05-22 22:37:00,61.1,53.5,29.47,ESE,113,11.1,14.0,76,0.35,,,0.50,WUHU216HW,2013-05-22 20:37:00,
2013-05-22 22:42:00,60.9,52.6,29.47,NNE,23,2.4,11.1,74,0.37,,,0.52,WUHU216HW,2013-05-22 20:42:00,
2013-05-22 22:47:00,60.6,50.9,29.47,North,0,3.3,5.1,70,0.39,,,0.54,WUHU216HW,2013-05-22 20:47:00,
2013-05-22 22:52:00,60.4,48.2,29.47,NNW,338,1.1,5.1,64,0.35,,,0.56,WUHU216HW,2013-05-22 20:52:00,
2013-05-22 22:57:00,60.6,47.1,29.47,NNE,23,6.7,6.7,61,0.23,,,0.56,WUHU216HW,2013-05-22 20:57:00,
2013-05-22 23:02:00,60.9,50.4,29.47,NE,45,6.4,6.7,68,0.20,,,0.57,WUHU216HW,2013-05-22 21:02:00,
2013-05-22 23:07:00,61.1,53.2,29.47,ESE,113,12.9,12.9,75,0.20,,,0.59,WUHU216HW,2013-05-22 21:07:00,
2013-05-22 23:13:00,61.5,53.8,29.46,ESE,113,7.3,12.9,76,0.23,,,0.62,WUHU216HW,2013-05-22 21:13:00,
2013-05-22 23:18:00,61.5,53.8,29.46,SSE,152,6.6,10.0,76,0.23,,,0.64,WUHU216HW,2013-05-22 21:18:00,
2013-05-22 23:23:00,61.3,53.0,29.47,NNW,338,3.3,10.0,74,0.23,,,0.66,WUHU216HW,2013-05-22 21:23:00,
2013-05-22 23:28:00,60.6,48.0,29.47,NNW,338,7.1,8.2,63,0.23,,,0.68,WUHU216HW,2013-05-22 21:28:00,
2013-05-22 23:33:00,60.4,46.5,29.47,NNW,342,5.1,8.5,60,0.20,,,0.70,WUHU216HW,2013-05-22 21:33:00,
2013-05-22 23:38:00,60.0,45.2,29.47,NE,45,7.6,8.5,58,0.20,,,0.72,WUHU216HW,2013-05-22 21:38:00,
2013-05-22 23:43:00,59.5,48.5,29.47,East,90,10.7,12.0,67,0.20,,,0.74,WUHU216HW,2013-05-22 21:43:00,
2013-05-22 23:48:00,59.5,48.9,29.47,ENE,68,4.2,12.0,68,0.22,,,0.76,WUHU216HW,2013-05-22 21:48:00,
2013-05-22 23:54:00,59.5,49.4,29.47,NE,55,5.8,8.7,69,0.22,,,0.78,WUHU216HW,2013-05-22 21:54:00,
2013-05-22 23:59:00,59.5,48.9,29.47,NE,41,2.5,7.3,68,0.23,,,0.80,WUHU216HW,2013-05-22 21:59:00,